[[{"header":{"parameterUnit":"m.s-1","parameterCategory":1,"la1":30.2991,"la2":30.254,"lo1":-89.0895,"lo2":-89.0444,"dy":0.0017,"dx":0.0017,"nx":28,"ny":28,"refTime":"2025-08-07T09:00:00:Z","depth":0,"parameterNumber":2,"parameterNumberName":"U-component_of_WINDS"},"data":[0,0,0,0,0,0,0,0,0,0,0,0,0,0,0,0,0,0,0,0,0,0,0,0,0,0,0,0,0,0,0,0,0,0,0,0,0,0,0,0,0,0,0,0,0,0,0,0,0,0,0,0,0,0,0,0,0,0,-0.4227,-0.4228,0,-0.4296,-0.4297,-0.4298,-0.4351,-0.4351,-0.4352,-0.4352,-0.4418,-0.442,-0.4421,0,0,0,0,0,0,0,0,0,0,0,0,0,-0.4138,-0.4139,-0.4227,-0.4228,-0.4229,-0.4296,-0.4297,-0.4298,-0.4351,-0.4351,-0.4352,-0.4353,-0.4418,-0.4419,-0.4421,0,0,0,0,0,0,0,0,0,0,0,0,0,-0.4189,-0.414,-0.4227,-0.4264,-0.4268,-0.4296,-0.4297,-0.4298,-0.4351,-0.4351,-0.4352,-0.4353,-0.4417,-0.4419,-0.4421,-0.4418,0,0,-0.4427,-0.4428,0,0,0,0,0,0,0,0,-0.4186,-0.4192,-0.4257,-0.4261,-0.4266,-0.4316,-0.429,-0.4338,-0.435,-0.4319,-0.4352,-0.4353,-0.4383,-0.4388,-0.4399,-0.4421,-0.4424,-0.4427,-0.4428,-0.4429,-0.443,0,0,0,0,0,0,0,-0.4182,-0.4189,-0.4255,-0.4258,-0.4263,-0.4275,-0.4283,-0.4299,-0.4346,-0.4322,-0.4326,-0.4333,-0.4386,-0.4397,-0.4401,-0.4425,-0.4427,-0.4429,-0.443,-0.4431,-0.4447,-0.4446,0,0,0,0,0,0,-0.4173,-0.4186,-0.4252,-0.4257,-0.4227,-0.4276,-0.4285,-0.4299,-0.4346,-0.4354,-0.4333,-0.4336,-0.4393,-0.4399,-0.4404,-0.4403,-0.4429,-0.4431,-0.4432,-0.4447,-0.4446,-0.4446,0,0,0,0,0,0,-0.4171,-0.4179,-0.425,-0.4222,-0.4232,-0.4277,-0.4292,-0.43,-0.4311,-0.4354,-0.4362,-0.4336,-0.4394,-0.4401,-0.4414,-0.4406,-0.4432,-0.4434,-0.4448,-0.4447,-0.4446,-0.44,0,0,0,0,0,0,-0.4169,-0.4178,-0.4178,-0.4222,-0.4234,-0.426,-0.4291,-0.4301,-0.4315,-0.432,-0.436,-0.4367,-0.4395,-0.4411,-0.4416,-0.4409,-0.4435,-0.4449,-0.4448,-0.4446,-0.4403,-0.4398,-0.4393,0,0,0,0,0,-0.4165,-0.4161,-0.4177,-0.4185,-0.4235,-0.4259,-0.4266,-0.43,-0.4314,-0.4314,-0.4342,-0.4366,-0.4406,-0.4412,-0.4418,-0.4411,-0.445,-0.4448,-0.4447,-0.4405,-0.4399,-0.4393,0,0,0,0,0,0,-0.4113,-0.4167,-0.4186,-0.4197,-0.4223,-0.4268,-0.4269,-0.4292,-0.4314,-0.4317,-0.4358,-0.4366,-0.4375,-0.4394,-0.44,-0.441,-0.4431,-0.443,-0.4397,-0.4392,-0.4387,-0.4382,-0.4437,0,0,0,0,0,-0.4103,-0.412,-0.4166,-0.417,-0.4183,-0.4224,-0.4236,-0.426,-0.4288,-0.4299,-0.4328,-0.4353,-0.4372,-0.4383,-0.4402,-0.4406,-0.4415,-0.4404,-0.44,-0.4396,-0.4394,-0.4398,-0.4393,-0.444,-0.444,-0.444,0,0,-0.4081,-0.4113,-0.4121,-0.4161,-0.4184,-0.4199,-0.4232,-0.4247,-0.4259,-0.4301,-0.4316,-0.4337,-0.4368,-0.4377,-0.4382,-0.4393,-0.4384,-0.4394,-0.439,-0.4391,-0.4395,-0.4391,-0.4387,-0.4439,-0.4439,-0.444,0,0,-0.4051,-0.4077,-0.4084,-0.4107,-0.4143,-0.417,-0.4171,-0.4213,-0.423,-0.4245,-0.4278,-0.4291,-0.4322,-0.4343,-0.4358,-0.4336,-0.4358,-0.4341,-0.4316,-0.4319,-0.4315,-0.4312,-0.4303,-0.43,-0.434,-0.4339,-0.4339,0,-0.4019,-0.4045,-0.4084,-0.4097,-0.4113,-0.4154,-0.4161,-0.4181,-0.422,-0.423,-0.4243,-0.4283,-0.4307,-0.432,-0.4315,-0.4326,-0.4328,-0.4336,-0.4313,-0.431,-0.4308,-0.43,-0.4297,-0.4337,-0.4337,-0.4338,-0.4338,0,-0.4004,-0.4022,-0.4023,-0.4061,-0.4078,-0.4087,-0.4127,-0.4138,-0.4161,-0.4187,-0.4202,-0.4232,-0.4258,-0.4264,-0.4286,-0.4281,-0.4287,-0.4305,-0.4327,-0.43,-0.4293,-0.4291,-0.4334,-0.4334,-0.4335,-0.4336,0,0,-0.3941,-0.4002,-0.4002,-0.402,-0.4063,-0.4076,-0.4088,-0.4115,-0.4124,-0.415,-0.416,-0.4186,-0.4204,-0.422,-0.4245,-0.4247,-0.4227,-0.4266,-0.4267,-0.4257,-0.4223,-0.4208,-0.4204,-0.4243,-0.4243,-0.4243,-0.422,0,-0.3916,-0.3941,-0.3976,-0.3988,-0.4004,-0.4044,-0.4053,-0.408,-0.4104,-0.412,-0.4147,-0.4164,-0.4187,-0.4197,-0.4202,-0.4229,-0.4221,-0.4231,-0.4251,-0.4251,-0.4241,-0.4201,-0.4185,-0.4162,-0.4218,-0.4217,-0.4217,0,-0.389,-0.3916,-0.393,-0.3972,-0.398,-0.3988,-0.4016,-0.4032,-0.4062,-0.408,-0.4099,-0.4126,-0.4139,-0.4159,-0.4177,-0.4183,-0.4194,-0.4208,-0.4208,-0.421,-0.4232,-0.4201,-0.4156,-0.4152,-0.4214,-0.4214,-0.4214,0,-0.3842,-0.388,-0.3893,-0.3907,-0.3957,-0.3962,-0.3982,-0.4014,-0.4028,-0.4052,-0.4062,-0.4087,-0.41,-0.4118,-0.415,-0.4162,-0.4164,-0.4187,-0.4178,-0.4177,-0.4175,-0.4175,-0.413,-0.4184,-0.4184,-0.4184,-0.4184,0,-0.381,-0.3817,-0.3872,-0.388,-0.3888,-0.3929,-0.3936,-0.396,-0.3988,-0.4,-0.4036,-0.4047,-0.409,-0.4105,-0.4131,-0.4141,-0.4147,-0.4161,-0.4167,-0.4157,-0.4155,-0.4163,-0.4165,-0.4183,-0.4183,-0.4183,-0.4183,0,-0.3757,-0.3795,-0.3812,-0.3858,-0.387,-0.3874,-0.3912,-0.3921,-0.3948,-0.3963,-0.3969,-0.4011,-0.4031,-0.4066,-0.4095,-0.4113,-0.4117,-0.4129,-0.4107,-0.4111,-0.4099,-0.41,-0.4058,-0.4054,-0.411,-0.411,-0.4109,0,-0.3734,-0.374,-0.3788,-0.3799,-0.3819,-0.3837,-0.3853,-0.3893,-0.3907,-0.3943,-0.3947,-0.397,-0.3991,-0.402,-0.4052,-0.4075,-0.4087,-0.4071,-0.409,-0.408,-0.4086,-0.4085,-0.4085,-0.4066,-0.4065,-0.4064,-0.4064,0,-0.3688,-0.3707,-0.3728,-0.3756,-0.3774,-0.3797,-0.3823,-0.383,-0.3875,-0.3889,-0.3911,-0.3927,-0.3958,-0.398,-0.4008,-0.4028,-0.4053,-0.4058,-0.4057,-0.4046,-0.4033,-0.4039,-0.4094,-0.4058,-0.4059,-0.4059,-0.406,-0.406,-0.3649,-0.3657,-0.3691,-0.3714,-0.3738,-0.3761,-0.3771,-0.38,-0.382,-0.3849,-0.3872,-0.3891,-0.3922,-0.3962,-0.398,-0.3995,-0.4007,-0.4005,-0.4005,-0.4004,-0.3999,-0.4031,-0.4001,-0.4001,-0.4001,-0.4001,-0.4001,0,-0.3605,-0.363,-0.365,-0.3685,-0.3703,-0.3727,-0.3757,-0.3769,-0.3787,-0.3814,-0.3834,-0.3859,-0.3881,-0.3915,-0.3939,-0.3945,-0.3957,-0.395,-0.3949,-0.3953,-0.3988,-0.3986,-0.3939,-0.3939,-0.3939,-0.3939,-0.3939,-0.3939,-0.3584,-0.3598,-0.3621,-0.3646,-0.3671,-0.3692,-0.3707,-0.3728,-0.375,-0.3776,-0.3795,-0.3818,-0.3848,-0.3875,-0.3895,-0.3905,-0.3911,-0.39,-0.3913,-0.3945,-0.3951,-0.3956,-0.3955,-0.3902,-0.3902,-0.3877,-0.3877,-0.3876]},{"header":{"parameterUnit":"m.s-1","parameterCategory":1,"la1":30.2991,"la2":30.254,"lo1":-89.0895,"lo2":-89.0444,"dy":0.0017,"dx":0.0017,"nx":28,"ny":28,"refTime":"2025-08-07T09:00:00:Z","depth":0,"parameterNumber":3,"parameterNumberName":"V-component_of_WINDS"},"data":[0,0,0,0,0,0,0,0,0,0,0,0,0,0,0,0,0,0,0,0,0,0,0,0,0,0,0,0,0,0,0,0,0,0,0,0,0,0,0,0,0,0,0,0,0,0,0,0,0,0,0,0,0,0,0,0,0,0,-1.9831,-1.9831,0,-1.986,-1.986,-1.9861,-1.983,-1.9829,-1.9827,-1.9826,-1.9857,-1.9859,-1.9861,0,0,0,0,0,0,0,0,0,0,0,0,0,-1.9752,-1.9753,-1.9831,-1.9831,-1.9832,-1.986,-1.986,-1.9861,-1.983,-1.9829,-1.9827,-1.9826,-1.9857,-1.9859,-1.9861,0,0,0,0,0,0,0,0,0,0,0,0,0,-1.9784,-1.9754,-1.9831,-1.982,-1.9819,-1.986,-1.986,-1.9861,-1.983,-1.9828,-1.9827,-1.9825,-1.9856,-1.9859,-1.9862,-1.9915,0,0,-1.987,-1.9872,0,0,0,0,0,0,0,0,-1.9782,-1.9787,-1.9821,-1.9821,-1.982,-1.9839,-1.9844,-1.9879,-1.9831,-1.9826,-1.9826,-1.9824,-1.9853,-1.9856,-1.9865,-1.9917,-1.9918,-1.9871,-1.9872,-1.9874,-1.9875,0,0,0,0,0,0,0,-1.978,-1.9786,-1.9842,-1.9822,-1.9821,-1.9814,-1.9817,-1.985,-1.9849,-1.9826,-1.9824,-1.9828,-1.9852,-1.9863,-1.9866,-1.9918,-1.9871,-1.9873,-1.9875,-1.9876,-2.0016,-2.0018,0,0,0,0,0,0,-1.9779,-1.9784,-1.9842,-1.9843,-1.9796,-1.9817,-1.982,-1.9835,-1.9849,-1.9849,-1.9829,-1.9826,-1.9858,-1.9862,-1.9867,-1.9931,-1.9874,-1.9876,-1.9878,-2.0014,-2.0017,-2.0019,0,0,0,0,0,0,-1.9777,-1.9784,-1.984,-1.9813,-1.982,-1.982,-1.9837,-1.9836,-1.9847,-1.9851,-1.9851,-1.984,-1.9857,-1.9863,-1.9904,-1.9932,-1.9878,-1.988,-2.0012,-2.0015,-2.0018,-2.0061,0,0,0,0,0,0,-1.9775,-1.9784,-1.9804,-1.9814,-1.9821,-1.9876,-1.9839,-1.9838,-1.9852,-1.9848,-1.9861,-1.9861,-1.9856,-1.9899,-1.9906,-1.9935,-1.9883,-2.001,-2.0013,-2.0017,-2.0057,-2.0065,-2.0072,0,0,0,0,0,-1.9772,-1.9815,-1.9805,-1.9812,-1.9846,-1.9878,-1.9882,-1.9875,-1.9854,-1.9875,-1.9877,-1.9861,-1.9928,-1.9904,-1.9911,-1.9941,-2.0008,-2.0012,-2.0017,-2.0053,-2.0063,-2.0071,0,0,0,0,0,0,-1.9808,-1.9816,-1.9805,-1.9852,-1.9864,-1.9873,-1.9898,-1.9885,-1.9905,-1.9901,-1.9891,-1.9895,-1.9938,-1.9944,-1.9917,-1.9995,-1.9964,-1.9971,-1.999,-1.9999,-2.0006,-2.0005,-1.9885,0,0,0,0,0,-1.9822,-1.9846,-1.9852,-1.9892,-1.9899,-1.9898,-1.9911,-1.9905,-1.9918,-1.9923,-1.9929,-1.9943,-1.9967,-1.9983,-2.0005,-2.0057,-2.006,-2.0082,-2.0089,-2.0095,-2.0101,-2.013,-2.014,-2.0034,-2.0034,-2.0034,0,0,-1.985,-1.9857,-1.9873,-1.99,-1.9909,-1.9936,-1.9903,-1.9932,-1.9952,-1.9928,-1.9967,-1.9972,-1.9987,-2.0034,-2.0054,-2.0039,-2.0131,-2.0101,-2.0106,-2.0108,-2.0136,-2.0146,-2.0155,-2.0037,-2.0036,-2.0036,0,0,-1.9915,-1.9922,-1.9957,-1.9967,-1.9981,-1.998,-1.9988,-1.9999,-2.0001,-2.004,-2.0023,-2.0046,-2.0088,-2.0099,-2.0111,-2.0181,-2.0167,-2.0188,-2.0228,-2.0256,-2.0265,-2.0272,-2.0298,-2.0308,-2.0194,-2.0194,-2.0194,0,-1.9948,-1.9987,-1.9977,-2.0008,-2.0021,-2.0,-2.0036,-2.0046,-2.0067,-2.0077,-2.0059,-2.0112,-2.012,-2.017,-2.0187,-2.0197,-2.0207,-2.0187,-2.0264,-2.0271,-2.0278,-2.0303,-2.0313,-2.0196,-2.0196,-2.0196,-2.0196,0,-2.0028,-2.0055,-2.0082,-2.0102,-2.0118,-2.0152,-2.0148,-2.0165,-2.0157,-2.0158,-2.0199,-2.0208,-2.0233,-2.0244,-2.0236,-2.0293,-2.0283,-2.0265,-2.0235,-2.0291,-2.0315,-2.0324,-2.02,-2.0199,-2.0199,-2.0198,0,0,-2.0117,-2.0131,-2.0142,-2.0151,-2.0165,-2.0187,-2.0219,-2.0243,-2.0259,-2.0274,-2.0302,-2.0338,-2.0321,-2.0334,-2.0328,-2.0353,-2.0409,-2.0332,-2.0332,-2.0347,-2.0474,-2.0489,-2.05,-2.04,-2.0401,-2.0403,-2.0474,0,-2.0183,-2.0239,-2.0232,-2.0287,-2.0313,-2.0293,-2.0322,-2.0334,-2.0336,-2.0359,-2.0361,-2.0387,-2.0362,-2.037,-2.0394,-2.0397,-2.0435,-2.0392,-2.0427,-2.0429,-2.0426,-2.0512,-2.0528,-2.0594,-2.0483,-2.0484,-2.0485,0,-2.0268,-2.0286,-2.0343,-2.0354,-2.0365,-2.0391,-2.0412,-2.0434,-2.0448,-2.0448,-2.0462,-2.0452,-2.0486,-2.0454,-2.0501,-2.0472,-2.0486,-2.049,-2.0493,-2.0497,-2.0461,-2.052,-2.0615,-2.0626,-2.0499,-2.0498,-2.0497,0,-2.0329,-2.0368,-2.0407,-2.0416,-2.0429,-2.0448,-2.0455,-2.0467,-2.0482,-2.0501,-2.051,-2.0533,-2.0546,-2.0564,-2.056,-2.0537,-2.061,-2.0577,-2.0612,-2.0612,-2.0629,-2.0628,-2.0729,-2.0635,-2.0635,-2.0635,-2.0635,0,-2.0405,-2.0441,-2.0435,-2.046,-2.05,-2.0491,-2.0532,-2.0536,-2.0547,-2.0573,-2.0557,-2.0581,-2.0574,-2.0599,-2.0596,-2.0637,-2.0642,-2.0644,-2.0643,-2.0646,-2.0646,-2.0656,-2.0652,-2.0638,-2.0637,-2.0636,-2.0636,0,-2.048,-2.0478,-2.052,-2.0529,-2.0532,-2.0562,-2.057,-2.0593,-2.0594,-2.0627,-2.0634,-2.0635,-2.0663,-2.0661,-2.0692,-2.0691,-2.0742,-2.0734,-2.0737,-2.0736,-2.0771,-2.0769,-2.0883,-2.0898,-2.0794,-2.0795,-2.0796,0,-2.053,-2.0557,-2.0569,-2.0585,-2.0593,-2.0618,-2.0634,-2.0626,-2.0643,-2.0661,-2.0683,-2.0709,-2.0731,-2.0777,-2.0781,-2.0805,-2.08,-2.0838,-2.0803,-2.0806,-2.0802,-2.0801,-2.0805,-2.0846,-2.0847,-2.0848,-2.0848,0,-2.0618,-2.0615,-2.0637,-2.0659,-2.0678,-2.0695,-2.071,-2.0724,-2.0718,-2.0738,-2.0767,-2.0783,-2.0816,-2.0843,-2.0866,-2.0874,-2.0861,-2.0859,-2.0869,-2.0873,-2.0874,-2.0876,-2.0757,-2.0857,-2.0856,-2.0855,-2.0855,-2.0855,-2.0683,-2.0707,-2.0719,-2.0745,-2.0755,-2.077,-2.0793,-2.0797,-2.082,-2.0846,-2.084,-2.0872,-2.0887,-2.0917,-2.0926,-2.0953,-2.0939,-2.0952,-2.0956,-2.096,-2.0965,-2.0869,-2.0957,-2.0956,-2.0956,-2.0956,-2.0956,0,-2.0772,-2.0779,-2.0802,-2.0824,-2.0845,-2.0829,-2.0846,-2.0864,-2.0893,-2.0907,-2.0928,-2.0961,-2.0988,-2.0994,-2.102,-2.1039,-2.1034,-2.1047,-2.1046,-2.1048,-2.0975,-2.0965,-2.105,-2.105,-2.105,-2.105,-2.105,-2.105,-2.082,-2.0861,-2.0859,-2.0905,-2.0912,-2.0943,-2.0954,-2.0969,-2.098,-2.1018,-2.1039,-2.1043,-2.1054,-2.1081,-2.1105,-2.1106,-2.1117,-2.1132,-2.1131,-2.1063,-2.1053,-2.1044,-2.1035,-2.1134,-2.1134,-2.1203,-2.1203,-2.1204]}]]